{"data":{"norad_id":60500,"intl_designator":"2024-149AJ","name":"NUSAT-49 (KLARA DAN VO*)","alt_names":[],"object_type":"PAYLOAD","status":"ACTIVE","operator":null,"country":"ARGN","launch_date":"2024-08-16","launch_site_code":"AFWTR","launch_vehicle":null,"mission":null,"orbit_class":"UNKNOWN","rcs_meters":null,"size_class":null,"mass_kg":null,"dimensions":null,"purposes":[],"wikipedia_slug":null,"has_3d_model":false,"image_url":null,"decayed_at":null,"tle_current":{"epoch":"2026-09-22T17:02:46.098528Z","epoch_age_seconds":95370,"freshness":"FRESH","line1":"1 60500U 24149AJ  26265.71025577  .00005947  00000+0  20698-3 0  9998","line2":"2 60500  97.3730 346.2994 0001358  12.7289 347.3986 15.30068975117042","mean_motion":15.30068975,"eccentricity":0.0001358,"inclination_deg":97.373,"raan_deg":346.2994,"arg_perigee_deg":12.7289,"mean_anomaly_deg":347.3986,"bstar":0.00020698,"rev_number":11704,"period_min":94.113404266628,"perigee_km":474.67557602726,"apogee_km":476.53705271144,"semimajor_km":6853.7433143693,"source":"CELESTRAK","updated_at":"2026-09-23T09:00:20.658620Z"}}}